﻿測定場所 (Monitoring sites),日付 (Measurement date),時間 (Measurement time),線量率 最大値 (max) μGy/h,線量率 最小値 (min) μGy/h,線量率 平均値 (average) μGy/h,
小平 (Kodaira),2014-02-09,23:01～24:00,0.0280,0.0238,0.0260,
小平 (Kodaira),2014-02-09,22:01～23:00,0.0270,0.0244,0.0256,
小平 (Kodaira),2014-02-09,21:01～22:00,0.0278,0.0239,0.0255,
小平 (Kodaira),2014-02-09,20:01～21:00,0.0265,0.0238,0.0252,
小平 (Kodaira),2014-02-09,19:01～20:00,0.0271,0.0236,0.0251,
小平 (Kodaira),2014-02-09,18:01～19:00,0.0274,0.0239,0.0255,
小平 (Kodaira),2014-02-09,17:01～18:00,0.0270,0.0232,0.0250,
小平 (Kodaira),2014-02-09,16:01～17:00,0.0275,0.0235,0.0251,
小平 (Kodaira),2014-02-09,15:01～16:00,0.0271,0.0235,0.0248,
小平 (Kodaira),2014-02-09,14:01～15:00,0.0268,0.0229,0.0245,
小平 (Kodaira),2014-02-09,13:01～14:00,0.0262,0.0227,0.0243,
小平 (Kodaira),2014-02-09,12:01～13:00,0.0262,0.0227,0.0247,
小平 (Kodaira),2014-02-09,11:01～12:00,0.0271,0.0226,0.0246,
小平 (Kodaira),2014-02-09,10:01～11:00,0.0258,0.0229,0.0244,
小平 (Kodaira),2014-02-09,09:01～10:00,0.0259,0.0223,0.0241,
小平 (Kodaira),2014-02-09,08:01～09:00,0.0259,0.0217,0.0237,
小平 (Kodaira),2014-02-09,07:01～08:00,0.0254,0.0220,0.0238,
小平 (Kodaira),2014-02-09,06:01～07:00,0.0259,0.0214,0.0233,
小平 (Kodaira),2014-02-09,05:01～06:00,0.0255,0.0214,0.0230,
小平 (Kodaira),2014-02-09,04:01～05:00,0.0253,0.0218,0.0234,
小平 (Kodaira),2014-02-09,03:01～04:00,0.0259,0.0225,0.0239,
小平 (Kodaira),2014-02-09,02:01～03:00,0.0267,0.0225,0.0246,
小平 (Kodaira),2014-02-09,01:01～02:00,0.0270,0.0238,0.0256,
小平 (Kodaira),2014-02-09,00:01～01:00,0.0304,0.0254,0.0279,
小平 (Kodaira),2014-02-08,23:01～24:00,0.0311,0.0275,0.0292,
小平 (Kodaira),2014-02-08,22:01～23:00,0.0342,0.0281,0.0310,
小平 (Kodaira),2014-02-08,21:01～22:00,0.0413,0.0328,0.0362,
小平 (Kodaira),2014-02-08,20:01～21:00,0.0400,0.0347,0.0369,
小平 (Kodaira),2014-02-08,19:01～20:00,0.0408,0.0344,0.0371,
小平 (Kodaira),2014-02-08,18:01～19:00,0.0432,0.0369,0.0407,
小平 (Kodaira),2014-02-08,17:01～18:00,0.0446,0.0369,0.0409,
小平 (Kodaira),2014-02-08,16:01～17:00,0.0439,0.0373,0.0407,
小平 (Kodaira),2014-02-08,15:01～16:00,0.0436,0.0366,0.0402,
小平 (Kodaira),2014-02-08,14:01～15:00,0.0432,0.0372,0.0404,
小平 (Kodaira),2014-02-08,13:01～14:00,0.0418,0.0358,0.0385,
小平 (Kodaira),2014-02-08,12:01～13:00,0.0423,0.0359,0.0383,
小平 (Kodaira),2014-02-08,11:01～12:00,0.0415,0.0354,0.0373,
小平 (Kodaira),2014-02-08,10:01～11:00,0.0413,0.0348,0.0371,
小平 (Kodaira),2014-02-08,09:01～10:00,0.0393,0.0350,0.0369,
小平 (Kodaira),2014-02-08,08:01～09:00,0.0382,0.0343,0.0363,
小平 (Kodaira),2014-02-08,07:01～08:00,0.0386,0.0339,0.0360,
小平 (Kodaira),2014-02-08,06:01～07:00,0.0390,0.0333,0.0363,
小平 (Kodaira),2014-02-08,05:01～06:00,0.0393,0.0340,0.0361,
小平 (Kodaira),2014-02-08,04:01～05:00,0.0380,0.0345,0.0361,
小平 (Kodaira),2014-02-08,03:01～04:00,0.0393,0.0349,0.0367,
小平 (Kodaira),2014-02-08,02:01～03:00,0.0387,0.0343,0.0359,
小平 (Kodaira),2014-02-08,01:01～02:00,0.0365,0.0316,0.0342,
小平 (Kodaira),2014-02-08,00:01～01:00,0.0358,0.0314,0.0340,
小平 (Kodaira),2014-02-07,23:01～24:00,0.0361,0.0318,0.0339,
小平 (Kodaira),2014-02-07,22:01～23:00,0.0360,0.0315,0.0339,
小平 (Kodaira),2014-02-07,21:01～22:00,0.0354,0.0321,0.0337,
小平 (Kodaira),2014-02-07,20:01～21:00,0.0355,0.0316,0.0335,
小平 (Kodaira),2014-02-07,19:01～20:00,0.0356,0.0318,0.0334,
小平 (Kodaira),2014-02-07,18:01～19:00,0.0350,0.0316,0.0332,
小平 (Kodaira),2014-02-07,17:01～18:00,0.0354,0.0316,0.0334,
小平 (Kodaira),2014-02-07,16:01～17:00,0.0358,0.0313,0.0332,
小平 (Kodaira),2014-02-07,15:01～16:00,0.0353,0.0311,0.0336,
小平 (Kodaira),2014-02-07,14:01～15:00,0.0349,0.0309,0.0334,
小平 (Kodaira),2014-02-07,13:01～14:00,0.0354,0.0319,0.0336,
小平 (Kodaira),2014-02-07,12:01～13:00,0.0364,0.0312,0.0335,
小平 (Kodaira),2014-02-07,11:01～12:00,0.0356,0.0323,0.0338,
小平 (Kodaira),2014-02-07,10:01～11:00,0.0355,0.0308,0.0336,
小平 (Kodaira),2014-02-07,09:01～10:00,0.0358,0.0310,0.0335,
小平 (Kodaira),2014-02-07,08:01～09:00,0.0353,0.0319,0.0335,
小平 (Kodaira),2014-02-07,07:01～08:00,0.0356,0.0319,0.0334,
小平 (Kodaira),2014-02-07,06:01～07:00,0.0357,0.0317,0.0335,
小平 (Kodaira),2014-02-07,05:01～06:00,0.0362,0.0312,0.0334,
小平 (Kodaira),2014-02-07,04:01～05:00,0.0355,0.0319,0.0337,
小平 (Kodaira),2014-02-07,03:01～04:00,0.0357,0.0320,0.0339,
小平 (Kodaira),2014-02-07,02:01～03:00,0.0362,0.0319,0.0337,
小平 (Kodaira),2014-02-07,01:01～02:00,0.0362,0.0316,0.0338,
小平 (Kodaira),2014-02-07,00:01～01:00,0.0356,0.0311,0.0336,
小平 (Kodaira),2014-02-06,23:01～24:00,0.0355,0.0319,0.0336,
小平 (Kodaira),2014-02-06,22:01～23:00,0.0352,0.0311,0.0334,
小平 (Kodaira),2014-02-06,21:01～22:00,0.0357,0.0315,0.0338,
小平 (Kodaira),2014-02-06,20:01～21:00,0.0352,0.0317,0.0333,
小平 (Kodaira),2014-02-06,19:01～20:00,0.0353,0.0311,0.0334,
小平 (Kodaira),2014-02-06,18:01～19:00,0.0351,0.0314,0.0334,
小平 (Kodaira),2014-02-06,17:01～18:00,0.0354,0.0315,0.0332,
小平 (Kodaira),2014-02-06,16:01～17:00,0.0354,0.0316,0.0333,
小平 (Kodaira),2014-02-06,15:01～16:00,0.0357,0.0312,0.0334,
小平 (Kodaira),2014-02-06,14:01～15:00,0.0363,0.0315,0.0337,
小平 (Kodaira),2014-02-06,13:01～14:00,0.0358,0.0315,0.0337,
小平 (Kodaira),2014-02-06,12:01～13:00,0.0363,0.0307,0.0335,
小平 (Kodaira),2014-02-06,11:01～12:00,0.0353,0.0313,0.0332,
小平 (Kodaira),2014-02-06,10:01～11:00,0.0351,0.0314,0.0333,
小平 (Kodaira),2014-02-06,09:01～10:00,0.0349,0.0319,0.0333,
小平 (Kodaira),2014-02-06,08:01～09:00,0.0356,0.0315,0.0336,
小平 (Kodaira),2014-02-06,07:01～08:00,0.0355,0.0309,0.0332,
小平 (Kodaira),2014-02-06,06:01～07:00,0.0356,0.0316,0.0333,
小平 (Kodaira),2014-02-06,05:01～06:00,0.0353,0.0313,0.0335,
小平 (Kodaira),2014-02-06,04:01～05:00,0.0357,0.0318,0.0333,
小平 (Kodaira),2014-02-06,03:01～04:00,0.0354,0.0312,0.0338,
小平 (Kodaira),2014-02-06,02:01～03:00,0.0368,0.0322,0.0338,
小平 (Kodaira),2014-02-06,01:01～02:00,0.0352,0.0317,0.0335,
小平 (Kodaira),2014-02-06,00:01～01:00,0.0348,0.0318,0.0332,
小平 (Kodaira),2014-02-05,23:01～24:00,0.0358,0.0305,0.0331,
小平 (Kodaira),2014-02-05,22:01～23:00,0.0352,0.0313,0.0331,
小平 (Kodaira),2014-02-05,21:01～22:00,0.0349,0.0314,0.0332,
小平 (Kodaira),2014-02-05,20:01～21:00,0.0367,0.0312,0.0332,
小平 (Kodaira),2014-02-05,19:01～20:00,0.0354,0.0306,0.0332,
小平 (Kodaira),2014-02-05,18:01～19:00,0.0349,0.0305,0.0330,
小平 (Kodaira),2014-02-05,17:01～18:00,0.0354,0.0314,0.0333,
小平 (Kodaira),2014-02-05,16:01～17:00,0.0356,0.0301,0.0333,
小平 (Kodaira),2014-02-05,15:01～16:00,0.0366,0.0314,0.0335,
小平 (Kodaira),2014-02-05,14:01～15:00,0.0355,0.0312,0.0337,
小平 (Kodaira),2014-02-05,13:01～14:00,0.0359,0.0314,0.0338,
小平 (Kodaira),2014-02-05,12:01～13:00,0.0355,0.0318,0.0336,
小平 (Kodaira),2014-02-05,11:01～12:00,0.0355,0.0311,0.0338,
小平 (Kodaira),2014-02-05,10:01～11:00,0.0357,0.0311,0.0335,
小平 (Kodaira),2014-02-05,09:01～10:00,0.0349,0.0315,0.0332,
小平 (Kodaira),2014-02-05,08:01～09:00,0.0357,0.0319,0.0338,
小平 (Kodaira),2014-02-05,07:01～08:00,0.0352,0.0308,0.0331,
小平 (Kodaira),2014-02-05,06:01～07:00,0.0358,0.0308,0.0333,
小平 (Kodaira),2014-02-05,05:01～06:00,0.0356,0.0316,0.0335,
小平 (Kodaira),2014-02-05,04:01～05:00,0.0360,0.0313,0.0333,
小平 (Kodaira),2014-02-05,03:01～04:00,0.0362,0.0314,0.0334,
小平 (Kodaira),2014-02-05,02:01～03:00,0.0359,0.0317,0.0336,
小平 (Kodaira),2014-02-05,01:01～02:00,0.0350,0.0315,0.0331,
小平 (Kodaira),2014-02-05,00:01～01:00,0.0358,0.0310,0.0333,
小平 (Kodaira),2014-02-04,23:01～24:00,0.0349,0.0306,0.0330,
小平 (Kodaira),2014-02-04,22:01～23:00,0.0354,0.0302,0.0326,
小平 (Kodaira),2014-02-04,21:01～22:00,0.0348,0.0314,0.0329,
小平 (Kodaira),2014-02-04,20:01～21:00,0.0353,0.0318,0.0333,
小平 (Kodaira),2014-02-04,19:01～20:00,0.0364,0.0317,0.0345,
小平 (Kodaira),2014-02-04,18:01～19:00,0.0454,0.0348,0.0387,
小平 (Kodaira),2014-02-04,17:01～18:00,0.0629,0.0419,0.0525,
小平 (Kodaira),2014-02-04,16:01～17:00,0.0682,0.0513,0.0597,
小平 (Kodaira),2014-02-04,15:01～16:00,0.0545,0.0386,0.0459,
小平 (Kodaira),2014-02-04,14:01～15:00,0.0453,0.0376,0.0421,
小平 (Kodaira),2014-02-04,13:01～14:00,0.0484,0.0413,0.0458,
小平 (Kodaira),2014-02-04,12:01～13:00,0.0518,0.0448,0.0486,
小平 (Kodaira),2014-02-04,11:01～12:00,0.0531,0.0444,0.0485,
小平 (Kodaira),2014-02-04,10:01～11:00,0.0510,0.0446,0.0481,
小平 (Kodaira),2014-02-04,09:01～10:00,0.0511,0.0402,0.0454,
小平 (Kodaira),2014-02-04,08:01～09:00,0.0441,0.0352,0.0383,
小平 (Kodaira),2014-02-04,07:01～08:00,0.0371,0.0332,0.0354,
小平 (Kodaira),2014-02-04,06:01～07:00,0.0377,0.0331,0.0349,
小平 (Kodaira),2014-02-04,05:01～06:00,0.0377,0.0332,0.0353,
小平 (Kodaira),2014-02-04,04:01～05:00,0.0385,0.0344,0.0361,
小平 (Kodaira),2014-02-04,03:01～04:00,0.0375,0.0331,0.0355,
小平 (Kodaira),2014-02-04,02:01～03:00,0.0382,0.0333,0.0359,
小平 (Kodaira),2014-02-04,01:01～02:00,0.0377,0.0344,0.0360,
小平 (Kodaira),2014-02-04,00:01～01:00,0.0374,0.0328,0.0358,
小平 (Kodaira),2014-02-03,23:01～24:00,0.0380,0.0341,0.0359,
小平 (Kodaira),2014-02-03,22:01～23:00,0.0379,0.0337,0.0357,
小平 (Kodaira),2014-02-03,21:01～22:00,0.0371,0.0336,0.0355,
小平 (Kodaira),2014-02-03,20:01～21:00,0.0374,0.0337,0.0357,
小平 (Kodaira),2014-02-03,19:01～20:00,0.0397,0.0332,0.0353,
小平 (Kodaira),2014-02-03,18:01～19:00,0.0365,0.0335,0.0349,
小平 (Kodaira),2014-02-03,17:01～18:00,0.0371,0.0326,0.0348,
小平 (Kodaira),2014-02-03,16:01～17:00,0.0371,0.0328,0.0349,
小平 (Kodaira),2014-02-03,15:01～16:00,0.0388,0.0322,0.0352,
小平 (Kodaira),2014-02-03,14:01～15:00,0.0366,0.0337,0.0350,
小平 (Kodaira),2014-02-03,13:01～14:00,0.0371,0.0332,0.0353,
小平 (Kodaira),2014-02-03,12:01～13:00,0.0377,0.0337,0.0355,
小平 (Kodaira),2014-02-03,11:01～12:00,0.0372,0.0333,0.0358,
小平 (Kodaira),2014-02-03,10:01～11:00,0.0392,0.0330,0.0359,
小平 (Kodaira),2014-02-03,09:01～10:00,0.0387,0.0339,0.0360,
小平 (Kodaira),2014-02-03,08:01～09:00,0.0379,0.0340,0.0360,
小平 (Kodaira),2014-02-03,07:01～08:00,0.0378,0.0339,0.0359,
小平 (Kodaira),2014-02-03,06:01～07:00,0.0393,0.0340,0.0360,
小平 (Kodaira),2014-02-03,05:01～06:00,0.0380,0.0338,0.0359,
小平 (Kodaira),2014-02-03,04:01～05:00,0.0386,0.0337,0.0360,
小平 (Kodaira),2014-02-03,03:01～04:00,0.0389,0.0339,0.0358,
小平 (Kodaira),2014-02-03,02:01～03:00,0.0389,0.0336,0.0358,
小平 (Kodaira),2014-02-03,01:01～02:00,0.0373,0.0327,0.0354,
小平 (Kodaira),2014-02-03,00:01～01:00,0.0379,0.0329,0.0354,
